Wetbulb
55.08 55.44 55.71 55.82 56.14 56.13 55.98 55.68 55.90 56.26 56.63 56.72 56.72 56.68 56.59 56.59 56.50 56.41 56.32 56.41 56.46 56.27 56.09 55.95 55.63 54.77 53.51 52.02 52.47 53.14 53.67 53.71 53.61 54.03 54.38 54.03 53.55 53.05 52.62 52.35 51.90 51.33 50.76 50.30 48.82 47.32 46.25 45.96 46.07 45.67 45.28 45.11 45.07 44.30 43.45 42.85 41.66 40.59 39.69 39.22 39.40 38.64 37.70 36.79 36.84 36.10 34.99 33.93 33.85
54.05 54.06 54.73 56.00 56.25 55.75 55.06 54.66 55.06 55.38 55.78 56.23 56.50 56.32 56.28 56.68 56.68 56.50 56.32 56.28 56.55 56.45 56.18 55.73 54.56 53.66 52.71 51.44 52.11 52.64 53.04 53.18 53.30 53.83 54.21 54.05 53.62 53.27 53.01 52.59 51.99 51.38 50.69 49.66 48.16 46.93 46.11 45.58 45.85 45.94 45.55 44.86 44.84 44.14 43.07 42.28 41.97 41.26 40.26 39.28 39.33 38.67 37.72 37.27 37.28 36.34 35.12 34.23 33.31
53.49 53.49 53.94 54.80 54.95 54.96 54.70 54.49 54.54 54.27 54.04 54.13 55.16 55.65 56.10 56.68 56.73 56.55 56.32 56.01 55.60 55.24 55.11 55.06 53.98 53.30 52.48 51.22 51.63 52.12 52.55 52.95 53.23 53.63 53.88 54.05 53.51 53.13 52.79 52.46 51.54 50.93 50.35 49.35 47.80 46.92 46.46 45.98 46.29 46.69 46.69 45.81 44.80 44.19 43.50 42.24 42.31 42.06 41.53 40.85 40.86 39.82 38.73 38.53 37.09 35.77 34.78 34.46 33.48
52.73 52.87 53.23 53.95 54.05 54.46 54.83 55.20 54.58 54.22 54.40 55.07 54.13 54.31 55.07 56.14 55.96 55.74 55.16 53.72 53.67 53.94 54.39 54.66 53.89 53.26 52.58 51.86 51.14 51.26 52.15 53.23 53.16 53.18 53.27 53.49 53.16 52.62 52.12 51.79 50.94 50.15 49.45 48.70 47.42 46.87 46.71 46.69 46.74 47.09 47.18 46.38 45.24 44.72 44.32 43.59 42.75 42.72 42.90 42.72 42.35 41.53 40.50 39.31 37.14 35.74 34.93 34.62 33.58
52.28 52.87 53.50 53.95 54.00 54.40 55.00 55.14 54.70 54.57 54.75 55.16 54.94 54.94 55.03 54.80 54.17 53.54 53.18 53.50 54.09 54.53 54.39 53.31 53.40 52.95 52.28 51.50 50.69 50.68 51.44 52.57 53.32 53.19 52.86 52.72 52.27 51.73 51.11 50.53 50.24 49.66 48.96 48.48 47.83 47.55 47.26 46.73 46.91 46.95 46.81 46.11 45.50 45.42 45.23 44.25 43.04 43.05 43.19 42.86 42.23 41.96 41.59 40.60 37.70 35.96 35.12 34.93 33.75
52.29 52.20 52.47 53.33 53.55 54.05 54.55 54.61 54.24 54.47 54.79 54.98 54.89 54.85 54.81 54.94 54.04 53.14 53.14 54.85 54.40 53.27 52.32 52.23 52.45 52.01 50.97 49.84 49.93 50.37 51.00 51.75 52.67 52.81 52.40 51.83 51.30 50.51 49.79 49.49 49.51 49.31 48.95 48.31 48.06 47.69 47.35 46.73 46.77 46.51 46.11 45.77 45.90 45.85 45.45 44.29 43.30 42.95 42.73 42.00 40.83 40.47 40.62 41.12 39.03 37.16 35.79 35.16 33.90
51.89 51.98 52.16 52.44 52.88 53.56 53.70 53.21 53.71 53.89 53.94 54.04 54.17 54.39 54.62 54.76 54.27 53.81 53.72 54.53 53.18 51.92 51.56 52.82 52.46 52.01 51.24 49.71 50.07 50.56 51.13 51.71 51.91 51.90 51.70 51.49 50.62 49.78 49.15 48.69 48.50 48.39 48.34 47.99 47.52 47.14 46.80 46.32 46.10 45.93 45.75 45.89 45.20 44.28 43.36 42.87 42.81 42.58 42.31 41.96 40.92 40.47 40.22 39.68 38.66 37.73 36.70 35.20 34.01
50.77 51.22 51.63 51.81 52.44 52.89 52.94 52.63 53.26 53.35 53.50 54.22 54.30 54.16 54.03 54.03 53.49 53.04 52.77 52.73 51.78 51.34 51.51 52.69 51.11 51.02 51.24 50.83 51.14 51.32 51.36 51.49 51.52 51.47 51.41 51.33 50.38 49.62 48.95 48.36 47.82 47.55 47.41 47.26 46.91 46.39 45.87 45.30 45.14 45.05 44.92 44.66 44.56 43.41 42.04 41.32 41.65 41.85 41.96 42.05 40.96 40.47 40.09 39.73 37.89 37.13 36.65 35.83 34.63
50.06 50.28 50.51 50.96 51.81 52.35 52.58 52.44 52.85 53.35 53.71 53.90 53.80 53.71 53.66 53.58 53.13 52.68 52.41 52.42 52.19 51.33 50.79 51.24 49.85 50.02 51.01 51.68 51.86 51.86 51.80 51.84 51.61 51.42 51.28 51.14 50.52 49.71 49.08 48.50 47.74 47.20 46.76 46.49 46.09 45.61 45.09 44.54 44.37 44.33 44.33 44.17 44.13 42.98 41.49 40.22 40.69 41.12 41.38 41.64 40.78 39.89 39.27 39.11 37.99 37.31 36.87 36.58 35.62
49.66 49.66 49.97 50.83 51.10 51.77 52.22 52.17 52.76 53.21 53.61 53.71 53.21 53.03 53.34 54.06 53.39 52.99 52.77 52.64 51.87 50.52 49.66 50.03 49.93 50.42 51.10 51.63 52.04 52.17 52.16 52.15 51.69 51.11 50.67 50.57 50.29 49.79 49.25 48.84 48.13 47.46 46.93 46.27 45.67 44.98 44.38 43.95 43.95 43.86 43.83 43.58 43.82 42.59 40.89 39.65 40.25 40.56 40.88 41.31 40.62 39.47 38.23 37.54 37.27 37.23 37.43 37.56 36.80
49.61 49.88 50.56 51.50 51.05 51.55 52.31 52.40 52.85 53.39 53.70 53.66 52.49 52.18 52.40 53.43 52.68 52.05 51.60 51.10 50.25 49.62 49.57 50.47 50.91 51.36 51.66 51.79 52.15 52.15 52.01 51.86 51.54 50.87 50.11 49.80 49.96 49.73 49.28 49.06 48.48 47.95 47.28 46.49 45.36 44.59 44.00 43.62 43.53 43.37 43.04 42.33 42.68 41.86 40.42 39.19 39.91 40.29 40.45 40.76 40.51 39.55 38.30 37.03 36.89 37.06 37.41 37.53 37.06
50.06 50.06 50.33 50.96 50.60 51.10 51.91 52.31 52.63 52.68 52.45 52.04 51.37 51.10 51.24 51.87 51.10 50.69 50.42 49.89 49.93 50.51 51.14 51.32 51.53 51.74 51.95 52.08 52.07 51.93 51.48 50.78 50.50 50.05 49.69 49.46 49.33 49.20 49.03 48.76 48.26 47.81 47.22 46.43 45.18 44.45 44.08 43.70 43.49 43.12 42.46 41.38 41.33 40.89 40.02 38.75 39.26 39.68 39.97 40.24 40.17 39.76 38.91 37.66 36.78 36.74 36.91 36.92 36.67
49.93 49.93 49.84 49.75 49.66 50.02 50.69 51.14 51.37 51.24 50.97 50.74 50.65 50.74 50.97 50.92 50.11 50.15 50.38 50.29 51.62 52.37 52.37 51.31 51.17 51.37 51.71 51.95 51.72 51.27 50.65 49.86 49.50 49.50 49.50 49.19 48.84 48.54 48.18 47.73 47.42 46.97 46.56 46.11 45.09 44.41 43.99 43.49 43.12 42.75 42.04 40.92 40.51 40.18 39.64 38.52 38.87 39.24 39.56 39.80 39.80 39.63 39.25 38.49 37.09 36.50 36.28 36.24 36.36
48.62 48.81 48.76 48.58 48.85 49.53 50.25 50.34 50.61 50.57 50.25 49.84 50.02 50.25 50.29 49.66 49.48 50.33 51.36 52.02 52.72 52.60 51.76 50.33 50.67 51.22 51.50 51.28 50.87 50.21 49.51 48.88 48.53 48.48 48.61 48.70 48.00 47.43 46.94 46.50 46.11 45.76 45.53 45.52 44.88 44.12 43.62 43.45 43.12 42.83 42.27 41.45 40.57 40.12 39.58 38.64 39.02 39.38 39.62 39.64 39.58 39.44 39.34 38.93 37.40 36.41 35.83 35.70 36.07
47.41 47.23 47.18 47.23 48.18 49.35 49.93 49.53 50.12 49.89 49.39 48.94 48.94 48.99 49.03 49.08 49.57 51.14 52.46 52.47 51.80 50.86 50.06 49.66 50.27 50.48 50.29 49.89 49.49 48.82 48.19 47.75 47.56 47.64 47.64 47.46 46.89 46.36 45.93 45.63 44.81 44.60 44.73 44.80 44.38 43.87 43.46 43.20 43.20 43.02 42.75 42.09 41.19 40.42 39.68 38.97 39.28 39.60 39.89 39.90 39.76 39.53 39.43 39.11 37.62 36.49 35.78 35.62 35.78
46.05 45.78 45.83 46.42 47.50 48.49 48.99 48.85 49.12 48.58 47.77 47.54 47.05 47.09 47.50 47.82 48.94 50.83 51.98 51.04 49.66 48.94 48.62 48.62 48.85 48.53 48.17 48.17 47.85 47.54 47.18 46.91 46.90 46.81 46.76 46.62 46.36 45.97 45.62 45.28 44.38 44.08 44.21 44.30 44.13 43.75 43.41 43.20 43.36 43.35 43.12 42.60 41.73 40.83 39.85 39.12 39.10 39.37 39.66 39.92 39.90 39.76 39.48 39.21 37.86 36.73 36.02 35.90 35.86
44.47 44.42 44.78 45.69 46.55 47.14 47.54 47.91 47.50 46.82 46.05 45.78 45.15 45.33 45.83 46.28 48.00 49.79 50.60 49.39 48.31 47.59 47.09 46.33 46.55 46.51 46.60 47.00 46.87 46.69 46.56 46.34 46.42 46.41 46.49 46.45 46.23 45.84 45.41 45.11 44.54 44.17 43.96 43.89 43.86 43.65 43.35 42.99 43.05 43.01 42.83 42.39 41.65 40.83 39.88 38.96 38.78 38.90 39.20 39.49 39.64 39.58 39.44 39.49 38.28 37.15 36.34 36.18 36.41
42.97 43.06 43.70 44.88 45.42 45.65 45.65 45.65 45.24 44.65 43.97 43.47 43.06 43.11 43.66 44.74 47.14 48.31 48.49 47.68 46.73 46.10 45.39 44.48 45.11 45.66 46.06 45.97 45.75 46.07 46.43 46.25 46.42 46.55 46.63 46.59 46.20 45.68 45.20 44.60 44.35 43.93 43.53 43.45 43.38 43.17 42.73 42.21 41.91 41.72 41.48 41.16 40.52 39.98 39.25 38.68 38.45 38.46 38.59 38.82 38.99 38.74 38.46 38.28 37.79 37.25 36.86 36.78 37.13
41.61 41.97 42.79 43.65 43.74 43.92 44.11 44.15 43.06 41.89 40.98 40.39 40.80 41.21 41.84 42.80 44.88 45.83 45.79 44.93 44.98 44.71 44.67 45.07 45.21 45.48 45.48 44.89 44.67 45.49 46.34 46.16 46.29 46.38 46.25 46.03 45.42 44.94 44.25 43.65 43.14 42.58 42.14 42.01 42.11 42.12 41.87 41.30 40.92 40.53 40.12 39.69 39.19 38.85 38.45 38.10 37.92 37.76 37.66 37.48 37.29 36.64 36.08 36.12 36.75 37.17 37.42 37.46 37.86
40.16 40.70 41.16 41.25 41.43 41.61 41.57 41.16 39.80 38.76 38.26 38.44 39.39 39.89 40.26 40.54 42.17 43.17 43.26 42.31 43.26 44.26 45.03 45.61 45.03 44.40 43.95 43.64 43.86 44.23 44.64 45.09 44.91 44.87 44.84 44.36 43.88 43.45 42.93 42.22 41.43 40.38 39.62 39.32 39.72 40.09 40.26 40.24 39.92 39.54 39.10 38.77 38.47 38.00 37.56 37.13 36.74 36.26 35.85 35.70 35.56 35.15 34.96 35.49 36.53 37.18 37.63 37.96 38.16
37.85 37.99 38.12 38.35 38.71 38.58 38.08 37.17 36.72 36.68 36.95 37.40 37.86 38.00 38.09 38.41 39.32 40.04 40.64 41.45 43.00 43.95 44.22 44.00 43.82 43.15 42.48 41.93 41.84 41.16 40.97 41.93 40.62 40.83 41.84 42.72 42.42 42.16 41.80 41.34 40.21 38.75 37.63 37.36 37.78 38.06 38.35 38.87 38.79 38.59 38.39 38.21 37.65 37.05 36.55 36.10 35.53 34.93 34.63 35.00 35.04 34.95 35.00 35.68 36.27 36.80 37.14 37.45 37.58
35.13 35.13 35.40 35.86 36.00 36.00 35.77 35.41 35.69 35.97 36.15 36.06 36.02 36.11 36.43 36.57 36.48 36.98 38.17 40.30 40.66 41.39 41.76 41.19 40.63 39.99 39.27 38.55 37.96 37.05 36.58 37.03 35.28 35.53 37.23 39.58 40.24 40.60 40.64 40.43 38.55 36.69 35.56 35.83 36.06 36.02 36.22 37.07 37.05 36.90 36.69 36.53 35.88 35.69 35.70 35.33 34.63 34.03 33.70 33.74 33.65 33.47 33.43 34.07 34.36 34.70 35.14 35.31 35.09
34.01 34.14 34.46 35.09 35.79 36.70 36.97 35.98 35.90 35.95 35.81 35.18 35.05 35.14 35.24 34.79 34.43 34.79 35.80 37.33 38.48 38.40 37.78 37.04 36.20 35.34 34.70 34.38 34.47 34.30 34.03 33.73 32.88 32.62 32.99 34.19 35.63 36.86 37.70 38.26 36.98 35.48 34.52 34.83 34.79 34.44 34.22 34.73 34.76 34.45 34.19 34.27 34.20 34.24 34.19 33.90 33.76 32.98 32.03 31.69 31.30 30.86 30.60 30.82 31.05 31.33 31.63 32.06 32.07
33.83 34.21 34.76 35.76 35.23 35.46 35.83 35.78 35.65 35.29 34.70 34.07 33.95 34.04 34.05 33.96 33.97 34.29 34.83 35.38 35.54 35.17 34.52 33.97 32.87 31.79 31.20 31.25 31.83 32.56 33.07 33.27 32.53 31.70 31.09 30.99 31.85 32.88 34.30 36.10 36.11 35.49 34.64 34.09 34.97 35.45 35.42 34.92 33.64 33.25 33.35 33.55 33.42 32.68 31.85 31.31 31.22 30.78 30.26 29.84 29.33 28.71 28.30 28.02 28.18 28.48 28.85 29.36 29.82
34.23 34.92 35.20 34.99 34.67 34.63 34.72 34.94 34.81 33.96 33.06 32.39 32.53 32.90 33.27 33.33 33.55 33.60 33.43 32.85 32.23 31.82 31.37 30.88 30.32 29.86 29.50 29.41 29.68 30.14 30.81 31.44 31.61 31.33 30.86 30.36 30.41 30.95 31.92 33.28 34.52 34.54 34.32 35.01 39.47 41.50 41.38 39.73 36.37 34.03 32.66 32.21 31.95 31.05 30.12 29.53 28.32 28.15 28.47 28.72 28.76 28.28 27.57 27.06 26.72 26.65 26.94 27.44 27.83
34.45 34.55 34.33 33.93 33.97 33.89 33.66 33.49 33.00 32.47 31.94 31.68 31.99 32.22 32.27 32.05 32.28 32.17 31.73 31.01 30.08 29.53 29.38 29.50 30.02 30.78 30.71 28.87 28.66 28.45 28.39 28.41 29.20 29.94 30.45 30.45 30.18 30.24 30.67 31.46 33.17 33.40 34.11 37.47 41.74 43.73 44.30 43.95 41.84 37.93 33.67 30.51 30.64 30.34 29.33 27.27 27.36 27.27 27.40 27.71 28.31 28.23 27.76 27.30 26.73 26.44 26.58 27.26 27.50
34.11 33.66 33.31 33.23 33.46 32.98 32.27 31.82 31.88 31.84 31.63 31.45 31.63 31.32 30.87 30.72 31.40 31.29 30.60 29.75 28.89 28.47 28.36 28.46 29.34 30.94 31.19 27.79 27.75 27.45 27.03 26.61 27.24 28.06 28.83 29.41 29.72 29.70 29.61 29.75 31.03 32.16 34.45 39.17 42.57 44.22 44.81 45.06 44.73 41.94 37.15 30.86 30.40 29.67 28.52 26.88 26.51 26.57 26.63 26.76 26.89 27.31 27.61 27.57 27.46 28.02 28.47 27.95 27.90
33.59 33.06 32.98 33.36 32.65 31.77 31.19 31.24 31.64 31.46 31.02 30.71 30.45 30.15 29.97 29.98 30.40 30.10 29.43 28.57 28.16 27.80 27.41 26.88 27.59 27.69 27.43 26.92 26.38 25.77 25.52 25.70 26.33 26.90 27.44 28.07 28.61 28.58 28.36 28.37 28.70 31.93 36.80 42.07 43.28 44.09 44.63 45.01 45.22 44.34 40.97 33.69 30.40 29.03 28.39 27.32 27.31 26.76 26.27 26.37 26.41 26.61 26.86 27.04 27.25 27.65 27.96 27.81 28.24
33.03 33.09 33.24 33.08 31.88 31.09 30.73 30.87 30.65 30.03 29.49 29.22 29.23 29.47 29.74 29.77 29.43 28.88 28.34 28.02 27.61 27.00 26.24 25.52 26.83 26.40 25.72 26.08 25.18 24.74 24.68 24.95 25.48 26.09 26.76 27.27 27.38 27.47 27.57 27.92 28.47 32.87 38.69 43.62 43.88 44.26 44.67 44.92 45.13 45.05 43.19 37.66 32.00 29.08 27.99 27.96 27.81 27.45 27.05 26.56 26.47 26.52 26.67 26.76 27.05 27.36 27.63 28.01 28.91
32.87 33.24 33.20 32.25 31.18 30.39 29.68 29.06 28.64 28.33 28.38 28.90 29.12 29.51 29.70 29.24 28.37 27.73 27.22 26.76 26.19 25.97 25.50 24.37 25.54 25.83 25.41 24.40 24.30 24.42 24.59 24.28 24.42 25.08 26.02 26.96 27.53 27.50 27.61 28.64 27.99 32.12 38.47 44.21 44.51 44.77 45.06 45.18 45.35 45.25 44.17 41.01 34.54 30.17 27.79 27.38 27.24 27.60 27.86 27.51 26.99 26.92 26.98 27.41 27.51 27.78 28.13 28.90 29.73
32.64 32.85 32.55 31.59 30.56 29.32 28.21 27.35 27.17 27.44 28.06 29.10 29.25 29.29 28.91 28.03 26.62 25.46 24.77 24.69 25.53 26.58 26.67 24.67 25.01 24.81 24.20 23.43 23.68 23.89 24.01 23.91 24.03 24.37 25.18 26.32 28.40 27.82 26.38 26.11 27.27 32.54 39.24 44.60 44.90 45.15 45.40 45.61 45.78 45.64 45.15 43.85 36.32 30.97 27.92 27.65 27.44 27.60 27.81 27.93 27.68 27.68 27.68 27.72 28.13 28.71 29.29 29.92 30.10
32.18 32.50 32.16 31.07 29.51 28.16 27.17 26.73 26.97 27.43 27.96 28.62 28.85 28.50 27.56 25.95 24.41 23.42 23.29 24.22 24.98 25.39 25.54 25.41 25.41 24.95 24.38 23.85 23.86 23.79 24.00 24.28 24.73 25.07 25.23 24.85 24.72 24.97 25.55 26.60 27.23 33.26 40.59 44.68 44.94 45.23 45.49 45.70 45.91 46.00 45.49 43.91 37.22 31.65 28.21 27.92 27.31 27.16 27.33 27.61 27.83 27.88 28.27 29.39 29.44 29.70 29.91 30.09 29.93
31.76 31.91 31.42 30.32 28.76 27.64 26.97 26.81 27.14 27.66 28.17 28.47 28.21 27.43 26.33 24.94 24.00 23.56 23.65 24.46 24.24 23.90 23.96 24.81 24.72 24.37 24.02 23.78 23.88 24.15 24.53 24.89 25.26 26.23 26.61 25.39 24.76 25.30 26.24 26.82 26.68 34.51 42.77 44.43 44.68 44.93 45.18 45.35 45.57 45.50 44.64 42.17 36.71 31.70 28.30 27.86 27.58 27.26 26.96 26.96 26.92 27.45 28.40 29.47 29.78 29.93 29.93 29.94 29.63
31.25 31.17 30.50 29.61 28.59 27.79 27.10 26.94 27.45 27.98 28.33 28.07 27.07 26.10 25.34 24.81 24.81 24.76 24.89 25.30 23.94 23.07 22.76 22.89 22.83 22.72 22.63 22.66 23.22 24.42 25.61 26.66 24.51 23.19 22.90 23.38 24.74 26.30 27.16 26.34 26.65 35.49 43.92 44.21 44.51 44.72 44.76 44.89 44.86 44.50 43.41 41.26 35.64 30.95 27.99 27.85 28.44 28.44 28.19 28.01 27.86 28.48 29.24 29.96 30.02 30.03 29.97 29.78 29.43
30.90 30.69 29.80 28.77 28.14 27.66 27.33 27.18 27.83 28.33 28.53 27.90 26.73 25.71 24.82 24.19 24.27 24.72 25.71 27.25 25.54 23.92 22.76 22.61 22.69 22.85 23.02 22.93 23.60 24.70 25.54 25.42 24.42 24.05 24.24 24.81 26.41 28.05 28.76 27.86 28.45 36.34 43.79 44.17 44.34 44.25 44.09 43.88 43.34 42.47 41.04 38.54 33.85 30.21 28.22 28.19 28.89 29.30 29.48 29.79 30.06 30.11 30.05 29.88 29.69 29.46 29.27 29.38 29.56
30.47 30.44 29.60 28.47 27.85 27.54 27.47 27.64 28.34 28.54 28.32 27.61 26.78 25.94 24.97 24.00 23.25 23.82 25.55 28.34 26.38 24.75 23.84 23.82 24.03 24.27 24.47 24.67 25.16 25.88 25.97 24.46 25.39 26.19 27.00 27.86 28.10 28.51 28.96 29.10 29.69 36.49 43.06 44.00 43.71 43.29 42.82 42.26 41.47 40.31 38.37 35.37 32.13 30.29 29.40 29.37 29.47 29.32 29.43 29.89 30.08 29.49 28.81 28.66 28.48 28.28 28.39 29.01 29.85
29.59 30.14 29.87 28.75 27.99 27.42 27.47 28.13 28.65 28.38 27.55 26.32 25.57 24.94 24.41 23.88 23.26 23.60 25.03 27.55 25.52 24.89 24.63 24.34 24.68 25.00 25.27 25.58 25.85 25.80 25.59 25.39 26.74 28.08 29.27 30.43 29.78 29.43 29.67 30.26 30.41 35.55 41.39 43.33 42.82 42.14 41.55 40.95 40.14 38.74 36.42 32.85 30.83 30.15 30.06 29.94 29.58 29.06 28.61 28.43 28.06 27.49 27.04 27.27 26.79 26.96 27.66 28.89 31.63
28.23 29.36 29.82 29.11 28.21 27.69 27.70 28.31 28.32 27.60 26.37 25.03 23.98 23.47 23.16 23.07 23.18 23.96 25.54 27.94 26.05 25.38 25.17 24.66 25.03 25.10 25.12 25.39 26.24 26.15 26.28 27.21 28.78 29.36 29.42 29.61 29.95 30.05 30.19 30.47 31.08 34.91 39.53 42.39 42.10 41.59 40.99 40.44 39.56 38.07 35.53 31.54 29.52 29.33 29.80 29.60 28.94 28.38 27.82 27.22 26.82 26.04 25.54 25.76 25.85 26.27 27.17 28.62 34.77
27.17 28.50 29.32 29.20 28.41 28.01 27.80 27.67 27.09 26.37 25.55 24.98 24.14 23.65 23.38 23.25 23.71 24.81 25.98 26.75 25.42 25.39 25.74 25.39 25.06 25.43 26.32 27.46 27.65 27.36 27.24 27.71 29.16 29.83 29.87 29.35 30.80 31.75 31.67 30.14 30.69 34.03 38.19 41.67 41.68 41.42 40.91 40.27 39.34 38.10 35.78 31.93 29.00 28.44 28.86 28.78 27.47 26.69 26.18 25.59 25.75 25.43 24.91 24.49 24.48 25.23 26.15 27.00 34.02
26.73 27.92 28.74 28.85 28.58 28.18 27.65 26.68 25.64 25.11 25.02 25.29 25.07 24.67 24.48 24.77 25.53 26.05 26.34 26.05 25.57 25.86 26.13 25.82 25.33 26.36 27.95 29.37 27.78 26.86 26.44 26.46 27.10 28.30 29.53 30.27 32.05 33.39 33.23 30.29 29.96 32.29 36.10 40.31 41.15 41.19 40.93 40.46 39.67 38.25 35.66 31.20 27.87 27.22 27.62 27.62 26.55 25.65 25.05 24.41 24.46 24.78 24.76 24.06 23.66 24.18 24.76 24.62 29.18
27.29 28.29 29.02 28.81 28.47 27.97 27.22 26.20 25.15 24.71 24.71 25.15 25.07 25.36 25.78 26.29 25.83 25.65 25.72 26.04 26.12 26.31 26.43 26.33 25.96 26.67 27.81 28.82 27.36 26.20 25.57 25.43 25.52 26.23 27.44 29.20 30.55 32.02 32.25 30.08 29.47 30.29 32.85 37.39 40.14 40.87 40.74 40.60 40.11 38.95 36.48 31.95 27.61 26.34 26.77 27.26 26.28 24.94 23.56 22.42 22.35 23.11 23.70 23.60 23.79 24.22 24.26 23.43 24.01
MSLP
1011.22 1011.38 1011.58 1011.82 1012.06 1012.30 1012.50 1012.74 1012.90 1013.02 1013.22 1013.42 1013.62 1013.74 1013.90 1014.10 1014.30 1014.46 1014.58 1014.66 1014.78 1014.90 1015.02 1015.18 1015.26 1015.38 1015.50 1015.70 1015.82 1015.90 1016.02 1016.14 1016.26 1016.34 1016.42 1016.54 1016.62 1016.74 1016.86 1016.98 1017.14 1017.26 1017.34 1017.46 1017.62 1017.86 1018.06 1018.22 1018.46 1018.58 1018.70 1018.86 1019.02 1019.14 1019.26 1019.34 1019.46 1019.62 1019.86 1020.02 1020.22 1020.38 1020.50 1020.66 1020.70 1020.70 1020.74 1020.74 1020.70
1011.22 1011.38 1011.54 1011.74 1012.02 1012.26 1012.54 1012.74 1012.94 1013.06 1013.22 1013.34 1013.46 1013.62 1013.78 1013.90 1014.10 1014.30 1014.46 1014.54 1014.58 1014.70 1014.86 1015.02 1015.18 1015.30 1015.46 1015.58 1015.70 1015.78 1015.94 1016.06 1016.14 1016.22 1016.30 1016.46 1016.50 1016.62 1016.74 1016.90 1017.02 1017.14 1017.26 1017.42 1017.58 1017.78 1018.02 1018.22 1018.42 1018.54 1018.66 1018.82 1018.98 1019.14 1019.22 1019.30 1019.34 1019.46 1019.66 1019.82 1020.02 1020.18 1020.38 1020.54 1020.54 1020.58 1020.58 1020.66 1020.66
1011.22 1011.38 1011.58 1011.78 1012.02 1012.30 1012.58 1012.78 1012.94 1013.10 1013.22 1013.34 1013.42 1013.54 1013.66 1013.82 1013.98 1014.18 1014.30 1014.38 1014.46 1014.62 1014.78 1014.98 1015.10 1015.22 1015.34 1015.50 1015.62 1015.74 1015.82 1015.94 1016.02 1016.14 1016.26 1016.30 1016.42 1016.50 1016.58 1016.74 1016.90 1017.06 1017.18 1017.38 1017.54 1017.74 1017.90 1018.14 1018.30 1018.46 1018.58 1018.74 1018.90 1019.02 1019.06 1019.18 1019.30 1019.46 1019.54 1019.58 1019.74 1019.98 1020.18 1020.30 1020.34 1020.46 1020.58 1020.66 1020.70
1011.22 1011.38 1011.58 1011.82 1012.02 1012.26 1012.46 1012.62 1012.86 1013.02 1013.14 1013.26 1013.38 1013.54 1013.66 1013.78 1013.90 1014.06 1014.18 1014.34 1014.50 1014.62 1014.74 1014.82 1014.98 1015.14 1015.26 1015.42 1015.54 1015.66 1015.74 1015.82 1015.90 1016.06 1016.18 1016.26 1016.30 1016.42 1016.54 1016.70 1016.90 1017.02 1017.18 1017.30 1017.50 1017.66 1017.86 1018.06 1018.26 1018.38 1018.50 1018.58 1018.74 1018.82 1018.94 1019.14 1019.34 1019.50 1019.50 1019.46 1019.50 1019.70 1019.86 1020.02 1020.14 1020.30 1020.54 1020.70 1020.74
1011.22 1011.34 1011.50 1011.74 1011.94 1012.10 1012.26 1012.46 1012.70 1012.90 1013.02 1013.18 1013.38 1013.54 1013.66 1013.74 1013.86 1014.02 1014.18 1014.38 1014.46 1014.54 1014.58 1014.70 1014.86 1015.02 1015.18 1015.30 1015.46 1015.58 1015.70 1015.78 1015.86 1015.98 1016.10 1016.18 1016.26 1016.34 1016.46 1016.62 1016.78 1016.94 1017.06 1017.22 1017.42 1017.62 1017.82 1018.02 1018.18 1018.30 1018.38 1018.46 1018.58 1018.70 1018.90 1019.10 1019.34 1019.46 1019.46 1019.42 1019.46 1019.50 1019.62 1019.86 1020.06 1020.30 1020.50 1020.70 1020.82
1011.22 1011.38 1011.50 1011.66 1011.86 1012.02 1012.22 1012.46 1012.58 1012.74 1012.98 1013.18 1013.34 1013.50 1013.66 1013.78 1013.86 1014.02 1014.18 1014.26 1014.30 1014.42 1014.54 1014.70 1014.82 1014.98 1015.14 1015.30 1015.46 1015.58 1015.66 1015.74 1015.82 1015.86 1016.02 1016.18 1016.22 1016.30 1016.46 1016.58 1016.70 1016.82 1016.94 1017.18 1017.34 1017.54 1017.74 1017.90 1018.10 1018.18 1018.26 1018.38 1018.46 1018.62 1018.86 1019.06 1019.22 1019.30 1019.34 1019.42 1019.46 1019.54 1019.66 1019.86 1020.02 1020.22 1020.42 1020.58 1020.74
1011.18 1011.38 1011.54 1011.70 1011.86 1012.02 1012.26 1012.46 1012.58 1012.74 1012.94 1013.14 1013.30 1013.46 1013.58 1013.70 1013.78 1013.90 1014.02 1014.06 1014.26 1014.42 1014.58 1014.62 1014.78 1014.94 1015.10 1015.30 1015.42 1015.54 1015.58 1015.70 1015.78 1015.86 1015.98 1016.06 1016.18 1016.34 1016.46 1016.58 1016.70 1016.78 1016.94 1017.06 1017.26 1017.42 1017.58 1017.74 1017.94 1018.02 1018.10 1018.22 1018.42 1018.58 1018.74 1018.90 1019.02 1019.14 1019.22 1019.30 1019.38 1019.54 1019.74 1019.86 1019.94 1020.02 1020.18 1020.30 1020.46
1011.18 1011.34 1011.50 1011.70 1011.86 1012.02 1012.18 1012.38 1012.58 1012.78 1012.94 1013.14 1013.26 1013.34 1013.46 1013.58 1013.70 1013.82 1013.94 1014.10 1014.26 1014.42 1014.50 1014.58 1014.74 1014.90 1015.02 1015.18 1015.34 1015.46 1015.58 1015.66 1015.78 1015.86 1015.94 1016.02 1016.22 1016.34 1016.46 1016.58 1016.74 1016.86 1016.94 1017.06 1017.22 1017.38 1017.54 1017.66 1017.82 1017.90 1018.02 1018.10 1018.26 1018.46 1018.58 1018.74 1018.90 1019.02 1019.10 1019.18 1019.30 1019.50 1019.66 1019.74 1019.82 1019.86 1019.90 1020.02 1020.18
1011.30 1011.46 1011.58 1011.74 1011.86 1012.02 1012.18 1012.34 1012.54 1012.74 1012.90 1013.06 1013.18 1013.26 1013.38 1013.50 1013.66 1013.78 1013.94 1014.06 1014.18 1014.30 1014.46 1014.58 1014.74 1014.82 1014.94 1015.10 1015.22 1015.34 1015.46 1015.58 1015.74 1015.82 1015.90 1016.02 1016.18 1016.30 1016.46 1016.58 1016.74 1016.90 1016.98 1017.10 1017.22 1017.34 1017.46 1017.62 1017.74 1017.78 1017.86 1017.98 1018.14 1018.30 1018.50 1018.62 1018.78 1018.90 1019.02 1019.14 1019.30 1019.46 1019.58 1019.62 1019.74 1019.82 1019.86 1019.98 1020.02
1011.42 1011.54 1011.66 1011.86 1011.98 1012.06 1012.18 1012.38 1012.50 1012.66 1012.82 1012.98 1013.14 1013.22 1013.34 1013.46 1013.58 1013.74 1013.86 1013.94 1014.10 1014.30 1014.46 1014.58 1014.70 1014.82 1014.98 1015.06 1015.18 1015.30 1015.38 1015.46 1015.58 1015.74 1015.90 1016.02 1016.18 1016.30 1016.42 1016.54 1016.70 1016.82 1016.98 1017.06 1017.22 1017.34 1017.46 1017.58 1017.70 1017.74 1017.78 1017.90 1018.10 1018.26 1018.42 1018.58 1018.74 1018.90 1019.02 1019.18 1019.30 1019.46 1019.58 1019.66 1019.74 1019.86 1019.94 1020.02 1020.02
1011.42 1011.54 1011.66 1011.82 1011.94 1012.06 1012.22 1012.42 1012.58 1012.66 1012.78 1012.98 1013.10 1013.22 1013.34 1013.46 1013.58 1013.66 1013.78 1013.90 1014.18 1014.30 1014.46 1014.50 1014.62 1014.74 1014.90 1015.02 1015.10 1015.18 1015.30 1015.38 1015.54 1015.70 1015.86 1015.98 1016.06 1016.18 1016.34 1016.46 1016.62 1016.74 1016.90 1017.02 1017.18 1017.30 1017.46 1017.58 1017.62 1017.74 1017.82 1017.94 1018.06 1018.22 1018.38 1018.58 1018.74 1018.86 1018.98 1019.14 1019.30 1019.46 1019.58 1019.70 1019.82 1019.94 1020.02 1020.06 1020.14
1011.38 1011.50 1011.62 1011.74 1011.90 1012.10 1012.26 1012.46 1012.58 1012.74 1012.86 1013.02 1013.14 1013.26 1013.34 1013.42 1013.50 1013.62 1013.82 1014.02 1014.18 1014.26 1014.30 1014.42 1014.54 1014.66 1014.78 1014.90 1014.98 1015.06 1015.22 1015.34 1015.50 1015.66 1015.82 1015.94 1016.06 1016.18 1016.30 1016.46 1016.58 1016.70 1016.82 1016.94 1017.06 1017.22 1017.38 1017.46 1017.58 1017.70 1017.82 1017.98 1018.06 1018.22 1018.38 1018.58 1018.70 1018.86 1018.98 1019.14 1019.30 1019.42 1019.58 1019.66 1019.82 1019.94 1020.06 1020.18 1020.22
1011.34 1011.50 1011.66 1011.78 1011.94 1012.14 1012.30 1012.46 1012.62 1012.74 1012.90 1013.02 1013.14 1013.22 1013.30 1013.38 1013.46 1013.62 1013.82 1014.02 1014.06 1014.14 1014.22 1014.34 1014.46 1014.58 1014.66 1014.74 1014.90 1015.06 1015.18 1015.34 1015.50 1015.66 1015.78 1015.98 1016.10 1016.22 1016.34 1016.46 1016.54 1016.66 1016.74 1016.90 1017.02 1017.18 1017.30 1017.42 1017.54 1017.66 1017.86 1018.02 1018.14 1018.26 1018.42 1018.58 1018.74 1018.86 1018.98 1019.10 1019.26 1019.34 1019.46 1019.58 1019.74 1019.86 1020.02 1020.14 1020.18
1011.38 1011.54 1011.74 1011.86 1012.02 1012.18 1012.34 1012.54 1012.66 1012.78 1012.90 1013.02 1013.10 1013.18 1013.30 1013.42 1013.50 1013.62 1013.74 1013.86 1013.98 1014.06 1014.18 1014.34 1014.46 1014.50 1014.58 1014.74 1014.90 1015.10 1015.22 1015.38 1015.54 1015.70 1015.82 1015.94 1016.10 1016.18 1016.30 1016.42 1016.54 1016.62 1016.74 1016.86 1016.98 1017.10 1017.26 1017.42 1017.50 1017.70 1017.86 1018.02 1018.18 1018.34 1018.46 1018.58 1018.74 1018.82 1018.94 1019.02 1019.14 1019.22 1019.30 1019.42 1019.58 1019.74 1019.90 1020.02 1020.02
1011.54 1011.66 1011.82 1011.98 1012.14 1012.26 1012.42 1012.58 1012.66 1012.78 1012.90 1013.02 1013.06 1013.18 1013.30 1013.46 1013.54 1013.58 1013.70 1013.82 1013.94 1014.06 1014.22 1014.38 1014.50 1014.58 1014.70 1014.86 1015.02 1015.14 1015.30 1015.42 1015.58 1015.74 1015.86 1015.98 1016.06 1016.18 1016.30 1016.42 1016.58 1016.66 1016.74 1016.90 1017.02 1017.10 1017.26 1017.38 1017.54 1017.70 1017.86 1018.02 1018.18 1018.30 1018.46 1018.58 1018.66 1018.74 1018.82 1018.90 1019.02 1019.10 1019.18 1019.30 1019.46 1019.62 1019.74 1019.82 1019.86
1011.70 1011.82 1011.94 1012.02 1012.18 1012.30 1012.46 1012.58 1012.70 1012.78 1012.90 1013.02 1013.18 1013.26 1013.34 1013.46 1013.58 1013.62 1013.74 1013.86 1014.02 1014.18 1014.30 1014.46 1014.58 1014.74 1014.86 1014.98 1015.06 1015.18 1015.34 1015.50 1015.62 1015.74 1015.86 1016.02 1016.10 1016.18 1016.34 1016.46 1016.58 1016.74 1016.86 1016.98 1017.06 1017.14 1017.22 1017.34 1017.46 1017.58 1017.74 1017.90 1018.06 1018.18 1018.30 1018.46 1018.54 1018.62 1018.74 1018.78 1018.86 1018.94 1019.06 1019.18 1019.30 1019.46 1019.58 1019.62 1019.70
1011.82 1011.94 1012.02 1012.14 1012.26 1012.38 1012.50 1012.58 1012.74 1012.90 1013.02 1013.14 1013.30 1013.38 1013.46 1013.58 1013.62 1013.74 1013.82 1013.98 1014.14 1014.30 1014.46 1014.58 1014.74 1014.86 1014.98 1015.06 1015.18 1015.30 1015.46 1015.58 1015.66 1015.78 1015.90 1016.02 1016.14 1016.26 1016.42 1016.50 1016.62 1016.74 1016.90 1017.02 1017.10 1017.18 1017.26 1017.34 1017.42 1017.54 1017.66 1017.82 1017.94 1018.06 1018.18 1018.30 1018.46 1018.54 1018.58 1018.70 1018.74 1018.82 1018.90 1019.02 1019.18 1019.30 1019.38 1019.46 1019.50
1011.98 1012.06 1012.14 1012.22 1012.34 1012.46 1012.58 1012.74 1012.90 1013.02 1013.18 1013.30 1013.42 1013.50 1013.58 1013.66 1013.74 1013.86 1013.94 1014.10 1014.26 1014.42 1014.58 1014.74 1014.86 1014.94 1015.06 1015.18 1015.30 1015.42 1015.50 1015.58 1015.74 1015.86 1015.98 1016.10 1016.18 1016.34 1016.46 1016.54 1016.62 1016.74 1016.86 1016.98 1017.06 1017.18 1017.26 1017.30 1017.42 1017.50 1017.58 1017.74 1017.86 1017.94 1018.06 1018.18 1018.30 1018.42 1018.46 1018.58 1018.62 1018.74 1018.82 1018.90 1019.02 1019.10 1019.18 1019.30 1019.30
1012.14 1012.22 1012.30 1012.38 1012.50 1012.58 1012.74 1012.90 1013.02 1013.18 1013.30 1013.42 1013.50 1013.58 1013.70 1013.82 1013.86 1014.02 1014.14 1014.30 1014.42 1014.50 1014.62 1014.82 1014.98 1015.06 1015.18 1015.30 1015.46 1015.50 1015.58 1015.70 1015.86 1015.98 1016.06 1016.18 1016.26 1016.34 1016.46 1016.54 1016.62 1016.74 1016.82 1016.90 1017.02 1017.10 1017.18 1017.30 1017.38 1017.46 1017.58 1017.66 1017.78 1017.86 1017.98 1018.10 1018.18 1018.30 1018.38 1018.46 1018.58 1018.66 1018.74 1018.82 1018.90 1018.94 1019.02 1019.06 1019.10
1012.26 1012.38 1012.46 1012.54 1012.66 1012.74 1012.90 1013.02 1013.18 1013.30 1013.46 1013.58 1013.66 1013.74 1013.86 1014.02 1014.02 1014.14 1014.30 1014.46 1014.54 1014.58 1014.74 1014.90 1015.06 1015.22 1015.34 1015.46 1015.58 1015.66 1015.74 1015.82 1015.98 1016.10 1016.18 1016.22 1016.30 1016.38 1016.46 1016.54 1016.66 1016.78 1016.90 1016.98 1017.06 1017.14 1017.18 1017.30 1017.38 1017.46 1017.54 1017.62 1017.74 1017.86 1017.94 1018.02 1018.18 1018.26 1018.34 1018.46 1018.54 1018.62 1018.70 1018.78 1018.82 1018.90 1018.94 1018.94 1018.94
1012.46 1012.58 1012.66 1012.74 1012.86 1012.94 1013.10 1013.26 1013.34 1013.46 1013.58 1013.70 1013.78 1013.94 1014.06 1014.18 1014.26 1014.34 1014.46 1014.58 1014.62 1014.74 1014.86 1015.02 1015.18 1015.34 1015.50 1015.62 1015.74 1015.86 1015.98 1016.02 1016.18 1016.26 1016.30 1016.30 1016.38 1016.46 1016.50 1016.58 1016.74 1016.86 1016.94 1017.02 1017.14 1017.18 1017.30 1017.34 1017.38 1017.46 1017.58 1017.62 1017.74 1017.86 1017.98 1018.06 1018.18 1018.30 1018.38 1018.46 1018.50 1018.58 1018.70 1018.74 1018.82 1018.90 1018.90 1018.90 1018.90
1012.70 1012.74 1012.86 1012.90 1013.02 1013.14 1013.30 1013.38 1013.50 1013.58 1013.74 1013.86 1013.98 1014.10 1014.22 1014.34 1014.46 1014.58 1014.62 1014.70 1014.78 1014.90 1015.06 1015.22 1015.42 1015.54 1015.66 1015.78 1015.90 1016.02 1016.18 1016.26 1016.38 1016.46 1016.46 1016.46 1016.50 1016.54 1016.58 1016.70 1016.78 1016.94 1017.06 1017.18 1017.18 1017.30 1017.34 1017.42 1017.46 1017.54 1017.62 1017.70 1017.78 1017.86 1018.02 1018.10 1018.22 1018.34 1018.46 1018.54 1018.58 1018.66 1018.74 1018.78 1018.86 1018.90 1018.90 1018.90 1018.94
1012.86 1012.90 1012.98 1013.06 1013.14 1013.26 1013.38 1013.50 1013.62 1013.78 1013.90 1014.06 1014.18 1014.30 1014.42 1014.58 1014.70 1014.78 1014.86 1014.90 1015.02 1015.18 1015.30 1015.46 1015.62 1015.74 1015.86 1015.98 1016.06 1016.18 1016.30 1016.42 1016.50 1016.58 1016.62 1016.70 1016.70 1016.74 1016.74 1016.78 1016.90 1017.02 1017.18 1017.22 1017.30 1017.34 1017.46 1017.46 1017.54 1017.62 1017.74 1017.82 1017.86 1017.98 1018.10 1018.18 1018.30 1018.42 1018.54 1018.62 1018.74 1018.78 1018.86 1018.90 1018.90 1018.94 1018.98 1019.02 1019.02
1012.94 1013.02 1013.10 1013.18 1013.30 1013.42 1013.50 1013.62 1013.78 1013.98 1014.18 1014.30 1014.42 1014.50 1014.62 1014.78 1014.86 1014.94 1015.02 1015.18 1015.30 1015.46 1015.58 1015.74 1015.86 1015.98 1016.06 1016.14 1016.22 1016.30 1016.38 1016.54 1016.66 1016.74 1016.82 1016.86 1016.90 1016.94 1016.94 1016.94 1017.02 1017.10 1017.18 1017.26 1017.30 1017.34 1017.46 1017.50 1017.62 1017.74 1017.82 1017.90 1018.02 1018.14 1018.22 1018.30 1018.46 1018.54 1018.62 1018.74 1018.82 1018.90 1018.94 1018.98 1019.02 1019.02 1019.02 1019.10 1019.14
1013.06 1013.14 1013.22 1013.34 1013.46 1013.58 1013.74 1013.86 1014.02 1014.18 1014.38 1014.50 1014.62 1014.70 1014.82 1014.94 1015.02 1015.14 1015.30 1015.46 1015.58 1015.70 1015.82 1015.94 1016.06 1016.18 1016.22 1016.30 1016.42 1016.46 1016.54 1016.66 1016.78 1016.90 1016.94 1017.02 1017.02 1017.02 1017.10 1017.14 1017.18 1017.22 1017.30 1017.30 1017.30 1017.26 1017.30 1017.46 1017.58 1017.74 1017.90 1018.02 1018.14 1018.26 1018.34 1018.46 1018.58 1018.66 1018.74 1018.78 1018.90 1018.94 1019.02 1019.02 1019.10 1019.14 1019.14 1019.18 1019.18
1013.18 1013.30 1013.46 1013.58 1013.66 1013.82 1013.98 1014.10 1014.30 1014.46 1014.58 1014.70 1014.78 1014.90 1015.02 1015.14 1015.22 1015.30 1015.50 1015.70 1015.86 1015.94 1016.02 1016.14 1016.22 1016.30 1016.38 1016.46 1016.54 1016.62 1016.74 1016.86 1016.90 1016.98 1017.06 1017.14 1017.18 1017.18 1017.22 1017.30 1017.34 1017.42 1017.46 1017.42 1017.30 1017.26 1017.26 1017.34 1017.50 1017.74 1017.94 1018.06 1018.18 1018.30 1018.46 1018.58 1018.66 1018.74 1018.78 1018.86 1018.90 1018.98 1019.02 1019.10 1019.14 1019.18 1019.18 1019.18 1019.18
1013.38 1013.54 1013.70 1013.74 1013.86 1014.06 1014.22 1014.38 1014.46 1014.58 1014.74 1014.86 1014.98 1015.10 1015.22 1015.34 1015.42 1015.54 1015.74 1015.90 1016.06 1016.18 1016.26 1016.34 1016.42 1016.46 1016.58 1016.62 1016.74 1016.86 1016.98 1017.06 1017.14 1017.18 1017.22 1017.26 1017.30 1017.38 1017.46 1017.54 1017.58 1017.58 1017.58 1017.46 1017.38 1017.30 1017.26 1017.30 1017.38 1017.58 1017.86 1018.14 1018.22 1018.30 1018.46 1018.62 1018.74 1018.82 1018.86 1018.90 1018.94 1018.98 1019.06 1019.14 1019.18 1019.18 1019.18 1019.18 1019.18
1013.58 1013.74 1013.86 1013.94 1014.14 1014.30 1014.46 1014.54 1014.66 1014.82 1014.94 1015.06 1015.18 1015.30 1015.46 1015.54 1015.62 1015.74 1015.94 1016.14 1016.26 1016.34 1016.46 1016.58 1016.66 1016.70 1016.74 1016.82 1016.98 1017.10 1017.18 1017.22 1017.30 1017.30 1017.38 1017.42 1017.46 1017.58 1017.66 1017.70 1017.74 1017.66 1017.58 1017.46 1017.38 1017.30 1017.30 1017.30 1017.34 1017.46 1017.74 1018.06 1018.18 1018.30 1018.50 1018.70 1018.78 1018.86 1018.90 1018.94 1018.98 1019.02 1019.06 1019.18 1019.18 1019.18 1019.22 1019.22 1019.18
1013.74 1013.86 1014.02 1014.18 1014.42 1014.58 1014.70 1014.74 1014.94 1015.06 1015.18 1015.30 1015.42 1015.46 1015.58 1015.70 1015.86 1016.02 1016.18 1016.30 1016.42 1016.54 1016.70 1016.82 1016.86 1016.90 1016.98 1017.10 1017.26 1017.34 1017.38 1017.46 1017.46 1017.50 1017.54 1017.58 1017.66 1017.74 1017.82 1017.82 1017.78 1017.74 1017.58 1017.46 1017.46 1017.38 1017.30 1017.34 1017.34 1017.42 1017.58 1017.98 1018.18 1018.34 1018.46 1018.62 1018.74 1018.86 1018.90 1018.94 1018.98 1019.02 1019.10 1019.18 1019.18 1019.18 1019.18 1019.18 1019.18
1013.90 1014.02 1014.18 1014.42 1014.62 1014.82 1014.94 1015.10 1015.22 1015.30 1015.42 1015.46 1015.54 1015.58 1015.74 1015.90 1016.10 1016.26 1016.38 1016.54 1016.66 1016.82 1016.94 1017.02 1017.02 1017.10 1017.30 1017.46 1017.54 1017.58 1017.58 1017.70 1017.74 1017.74 1017.74 1017.78 1017.86 1017.90 1017.98 1017.94 1017.90 1017.86 1017.70 1017.54 1017.46 1017.38 1017.34 1017.38 1017.38 1017.38 1017.50 1017.86 1018.10 1018.30 1018.46 1018.62 1018.74 1018.82 1018.90 1018.94 1018.98 1019.02 1019.06 1019.14 1019.18 1019.18 1019.22 1019.22 1019.22
1014.10 1014.22 1014.38 1014.58 1014.86 1015.02 1015.18 1015.30 1015.42 1015.46 1015.54 1015.58 1015.66 1015.78 1015.94 1016.18 1016.38 1016.54 1016.70 1016.82 1016.98 1017.06 1017.10 1017.18 1017.26 1017.46 1017.62 1017.74 1017.78 1017.82 1017.86 1017.90 1017.94 1017.94 1017.94 1017.98 1018.02 1018.06 1018.10 1018.06 1018.02 1017.90 1017.74 1017.58 1017.46 1017.42 1017.42 1017.42 1017.42 1017.38 1017.46 1017.74 1018.06 1018.30 1018.46 1018.58 1018.70 1018.78 1018.86 1018.90 1018.98 1019.02 1019.10 1019.18 1019.18 1019.22 1019.26 1019.30 1019.30
1014.22 1014.34 1014.54 1014.78 1015.06 1015.30 1015.42 1015.46 1015.54 1015.58 1015.66 1015.74 1015.86 1016.02 1016.26 1016.46 1016.66 1016.86 1016.98 1017.06 1017.18 1017.30 1017.34 1017.38 1017.54 1017.70 1017.82 1017.86 1017.94 1018.02 1018.06 1018.10 1018.10 1018.14 1018.14 1018.18 1018.18 1018.18 1018.18 1018.14 1018.06 1017.98 1017.78 1017.58 1017.50 1017.46 1017.46 1017.46 1017.46 1017.46 1017.50 1017.74 1018.10 1018.38 1018.54 1018.62 1018.74 1018.78 1018.90 1018.98 1019.06 1019.18 1019.22 1019.22 1019.30 1019.30 1019.30 1019.34 1019.38
1014.42 1014.54 1014.74 1015.02 1015.30 1015.46 1015.58 1015.62 1015.70 1015.74 1015.86 1015.98 1016.14 1016.30 1016.54 1016.74 1016.90 1017.06 1017.22 1017.34 1017.46 1017.54 1017.62 1017.70 1017.82 1017.94 1018.06 1018.18 1018.18 1018.18 1018.22 1018.26 1018.26 1018.26 1018.26 1018.26 1018.26 1018.22 1018.18 1018.18 1018.18 1017.98 1017.74 1017.62 1017.58 1017.58 1017.58 1017.58 1017.58 1017.66 1017.78 1018.02 1018.26 1018.50 1018.74 1018.78 1018.86 1019.02 1019.14 1019.26 1019.34 1019.38 1019.42 1019.42 1019.42 1019.42 1019.42 1019.42 1019.42
1014.58 1014.78 1015.02 1015.30 1015.50 1015.62 1015.74 1015.86 1015.86 1015.94 1016.06 1016.26 1016.46 1016.62 1016.78 1016.94 1017.14 1017.30 1017.46 1017.58 1017.74 1017.78 1017.86 1017.98 1018.06 1018.18 1018.30 1018.34 1018.34 1018.34 1018.38 1018.34 1018.42 1018.46 1018.42 1018.38 1018.34 1018.30 1018.26 1018.30 1018.26 1018.02 1017.78 1017.74 1017.74 1017.70 1017.74 1017.74 1017.82 1017.94 1018.06 1018.22 1018.50 1018.74 1018.90 1019.02 1019.10 1019.22 1019.34 1019.42 1019.46 1019.46 1019.46 1019.46 1019.46 1019.46 1019.46 1019.46 1019.46
1014.82 1015.02 1015.30 1015.50 1015.70 1015.82 1015.94 1016.02 1016.10 1016.18 1016.30 1016.58 1016.78 1016.94 1017.06 1017.22 1017.42 1017.58 1017.70 1017.74 1017.82 1017.94 1018.06 1018.22 1018.30 1018.34 1018.42 1018.46 1018.50 1018.46 1018.50 1018.54 1018.58 1018.58 1018.58 1018.50 1018.42 1018.34 1018.34 1018.38 1018.34 1018.14 1017.86 1017.86 1017.86 1017.90 1017.94 1018.02 1018.14 1018.26 1018.42 1018.58 1018.82 1019.02 1019.14 1019.22 1019.30 1019.42 1019.46 1019.54 1019.58 1019.58 1019.58 1019.62 1019.62 1019.58 1019.58 1019.54 1019.50
1014.98 1015.18 1015.46 1015.74 1015.86 1016.02 1016.10 1016.18 1016.30 1016.42 1016.62 1016.86 1017.02 1017.18 1017.34 1017.50 1017.66 1017.78 1017.86 1017.86 1017.90 1018.06 1018.26 1018.38 1018.46 1018.46 1018.54 1018.62 1018.66 1018.70 1018.74 1018.74 1018.74 1018.74 1018.70 1018.62 1018.58 1018.54 1018.58 1018.54 1018.46 1018.26 1018.06 1018.06 1018.10 1018.18 1018.30 1018.34 1018.46 1018.58 1018.74 1018.90 1019.06 1019.18 1019.30 1019.42 1019.50 1019.58 1019.66 1019.70 1019.78 1019.86 1019.86 1019.82 1019.82 1019.78 1019.74 1019.62 1019.58
1015.18 1015.30 1015.54 1015.82 1016.02 1016.18 1016.26 1016.34 1016.46 1016.66 1016.90 1017.18 1017.30 1017.46 1017.58 1017.70 1017.86 1017.98 1017.98 1017.94 1018.06 1018.26 1018.42 1018.50 1018.58 1018.70 1018.78 1018.86 1018.90 1018.98 1019.02 1018.94 1018.90 1018.90 1018.90 1018.82 1018.78 1018.78 1018.78 1018.74 1018.66 1018.50 1018.38 1018.34 1018.42 1018.54 1018.58 1018.66 1018.74 1018.86 1018.98 1019.14 1019.30 1019.38 1019.46 1019.58 1019.70 1019.78 1019.86 1019.94 1020.02 1020.10 1020.06 1020.02 1020.02 1019.94 1019.86 1019.74 1019.58
1015.38 1015.46 1015.62 1015.90 1016.14 1016.30 1016.38 1016.46 1016.66 1016.90 1017.18 1017.42 1017.54 1017.62 1017.74 1017.86 1018.02 1018.10 1018.10 1018.02 1018.18 1018.42 1018.62 1018.74 1018.90 1018.98 1019.02 1019.06 1019.14 1019.18 1019.18 1019.14 1019.06 1019.02 1019.06 1019.10 1019.06 1019.02 1019.02 1018.98 1018.94 1018.82 1018.70 1018.62 1018.70 1018.78 1018.86 1018.90 1019.02 1019.10 1019.18 1019.38 1019.50 1019.58 1019.70 1019.78 1019.90 1020.02 1020.10 1020.18 1020.22 1020.26 1020.26 1020.22 1020.18 1020.14 1020.06 1019.94 1019.66
1015.58 1015.62 1015.74 1016.02 1016.22 1016.38 1016.54 1016.74 1016.94 1017.18 1017.34 1017.54 1017.66 1017.74 1017.86 1017.94 1018.14 1018.22 1018.26 1018.26 1018.34 1018.54 1018.74 1018.94 1019.14 1019.22 1019.22 1019.18 1019.22 1019.30 1019.38 1019.38 1019.30 1019.30 1019.30 1019.38 1019.30 1019.26 1019.22 1019.26 1019.22 1019.14 1019.02 1018.90 1018.90 1018.98 1019.02 1019.10 1019.18 1019.30 1019.42 1019.58 1019.70 1019.78 1019.86 1019.98 1020.06 1020.18 1020.30 1020.34 1020.38 1020.38 1020.38 1020.34 1020.30 1020.26 1020.18 1020.14 1019.86
1015.74 1015.78 1015.90 1016.14 1016.30 1016.50 1016.74 1017.02 1017.22 1017.34 1017.46 1017.58 1017.74 1017.86 1018.02 1018.14 1018.30 1018.38 1018.46 1018.50 1018.58 1018.70 1018.90 1019.10 1019.30 1019.34 1019.34 1019.30 1019.38 1019.50 1019.58 1019.62 1019.62 1019.62 1019.58 1019.58 1019.54 1019.46 1019.46 1019.50 1019.50 1019.42 1019.30 1019.14 1019.06 1019.06 1019.18 1019.22 1019.30 1019.46 1019.62 1019.78 1019.86 1019.94 1019.98 1020.10 1020.22 1020.34 1020.46 1020.54 1020.54 1020.54 1020.50 1020.46 1020.42 1020.34 1020.30 1020.26 1020.10
1015.86 1015.94 1016.06 1016.30 1016.46 1016.66 1016.90 1017.18 1017.42 1017.54 1017.58 1017.70 1017.86 1018.02 1018.18 1018.30 1018.46 1018.58 1018.62 1018.74 1018.86 1018.98 1019.10 1019.26 1019.46 1019.50 1019.50 1019.46 1019.58 1019.70 1019.82 1019.90 1019.98 1019.98 1019.94 1019.86 1019.82 1019.74 1019.74 1019.74 1019.74 1019.70 1019.58 1019.42 1019.26 1019.22 1019.26 1019.30 1019.42 1019.54 1019.74 1019.94 1020.02 1020.06 1020.10 1020.18 1020.34 1020.54 1020.66 1020.74 1020.74 1020.70 1020.66 1020.58 1020.50 1020.46 1020.38 1020.34 1020.26
Wind_Speed
6 6 6 6 6 6 5 4 5 5 5 5 6 6 5 6 6 6 5 5 6 6 5 5 5 5 5 6 8 9 9 9 9 9 9 10 9 10 10 10 9 9 9 9 8 7 6 6 5 5 4 4 5 5 5 4 5 6 6 5 5 4 4 5 6 7 7 7 6
7 7 6 6 6 5 5 4 4 5 5 5 5 5 5 6 6 6 6 6 5 5 5 5 5 5 6 7 8 9 9 9 9 9 10 10 10 10 10 9 9 9 9 8 7 6 6 6 5 4 4 4 4 5 5 5 5 6 7 8 6 4 4 5 6 7 7 7 5
7 7 6 6 6 6 5 5 5 5 5 5 5 5 5 5 5 5 5 5 5 5 5 4 5 6 7 8 7 8 8 9 9 9 9 9 9 9 9 9 8 8 8 7 7 6 5 6 5 5 4 4 5 6 6 5 5 5 7 8 6 5 4 5 5 5 4 4 4
7 7 7 7 8 8 7 6 7 7 6 5 5 5 5 5 4 4 4 5 5 5 5 5 5 6 6 7 7 7 8 9 9 9 9 9 9 9 9 8 8 8 7 7 6 6 6 6 5 5 5 6 7 7 6 4 4 5 5 6 5 5 5 5 4 3 3 3 4
7 7 7 8 9 9 8 7 8 7 6 5 5 5 5 4 4 4 4 4 5 5 5 5 5 5 6 6 7 8 8 8 9 9 8 9 8 8 7 7 8 8 7 7 7 6 6 7 5 5 5 6 6 5 4 4 5 5 5 4 4 4 5 4 3 3 2 2 2
7 7 7 7 8 8 7 7 8 8 7 6 6 6 5 5 4 5 5 6 6 5 5 5 5 5 6 6 7 7 7 8 8 8 8 8 7 7 7 7 8 7 7 7 7 7 7 7 5 5 5 5 5 4 4 5 5 5 5 4 3 3 3 4 3 3 3 3 3
7 7 7 7 8 8 7 6 7 7 6 6 7 8 7 6 6 7 7 6 5 5 5 5 5 6 6 6 7 7 7 7 7 7 7 7 6 6 6 6 6 6 6 7 7 7 8 8 6 5 5 5 4 4 4 5 5 5 5 5 4 3 3 4 3 4 4 5 5
6 6 7 7 8 8 8 8 7 7 6 6 7 8 9 8 8 7 7 5 5 5 5 5 6 6 7 7 7 7 7 7 7 7 7 7 6 6 6 6 6 6 6 6 7 7 7 6 5 5 5 4 4 4 5 6 6 6 6 6 4 3 4 4 4 4 5 7 7
5 5 6 7 7 8 8 8 8 8 7 7 8 8 9 8 8 8 7 5 5 5 5 5 6 6 7 7 7 7 7 7 7 7 6 6 6 6 6 6 6 6 6 5 6 6 6 5 5 4 4 4 3 4 5 6 6 6 6 5 3 3 3 4 4 4 5 6 7
6 6 6 7 7 8 8 8 8 8 9 8 8 8 8 8 8 7 7 5 5 5 5 5 6 6 6 7 7 7 7 7 7 6 6 6 6 6 6 6 6 6 6 5 5 5 5 5 5 4 4 3 3 4 5 5 6 6 6 4 4 4 4 3 4 4 4 5 6
7 7 7 7 7 8 8 8 7 8 8 8 8 7 7 7 7 6 5 5 5 5 6 6 6 7 7 7 7 7 7 6 6 6 6 6 6 6 6 6 6 6 6 6 5 5 5 4 5 5 4 3 3 4 5 5 6 6 6 4 4 5 4 4 3 3 4 4 5
7 7 7 7 8 8 8 8 7 6 7 7 7 7 7 7 6 6 5 5 6 6 6 6 7 7 7 7 7 6 6 5 5 5 5 5 5 5 5 6 6 6 6 6 5 5 5 5 5 5 5 3 3 3 4 5 5 5 5 5 5 5 5 4 4 3 3 3 4
7 7 7 7 7 8 7 7 6 6 6 7 7 7 7 6 6 6 6 6 7 7 6 6 6 7 7 6 5 5 5 5 5 5 5 5 5 5 5 5 6 6 6 5 5 5 5 5 5 5 4 3 2 3 4 5 5 5 5 5 6 6 6 6 5 4 4 4 5
6 7 7 7 7 7 7 7 6 6 6 7 7 6 6 5 6 6 6 7 7 6 5 5 5 5 5 4 4 4 4 4 5 5 5 5 5 5 5 5 5 5 5 4 4 5 5 5 4 4 4 3 3 3 4 5 5 5 6 6 7 7 7 6 6 5 5 6 6
5 6 7 7 7 7 7 6 5 5 6 6 6 5 5 5 5 6 6 6 6 5 4 4 4 3 3 3 3 4 4 4 4 5 5 5 4 4 4 4 4 4 4 3 4 4 4 4 4 4 4 4 4 4 5 5 6 6 6 7 7 8 7 7 6 6 7 7 7
5 5 6 6 7 7 6 6 5 5 5 5 4 4 4 4 4 5 5 5 4 3 3 4 3 3 2 2 3 3 4 4 4 4 4 4 4 4 4 3 3 3 3 3 3 4 4 4 4 5 5 5 5 5 6 6 6 6 7 7 7 7 7 7 7 7 7 8 8
5 5 5 6 7 7 6 5 4 4 4 4 3 3 3 3 3 4 4 4 4 3 3 3 3 3 3 2 3 3 3 4 4 4 4 4 3 3 3 3 3 3 4 4 4 4 4 4 4 5 5 6 6 6 6 7 6 7 7 7 7 7 7 7 7 8 8 8 9
4 4 5 6 6 6 6 5 4 4 4 4 3 3 3 3 3 3 3 3 4 4 4 3 3 3 3 3 3 3 3 3 3 3 3 3 3 3 3 3 4 4 4 5 5 5 5 5 5 5 5 5 5 5 6 6 6 7 7 7 7 7 7 7 7 8 8 8 9
4 4 4 5 5 5 5 5 4 4 4 4 4 3 3 3 4 4 3 3 3 4 5 4 4 3 3 3 3 3 2 2 2 2 2 2 2 2 3 3 4 4 4 5 5 5 5 5 5 5 5 4 4 5 5 6 6 6 6 6 6 6 6 7 7 7 8 8 9
4 4 4 4 4 5 5 4 4 4 4 4 4 5 4 4 4 4 4 4 4 4 5 5 5 4 4 4 4 3 3 2 2 2 2 2 2 2 2 3 3 3 3 4 4 4 4 4 4 5 5 5 4 4 5 5 5 5 5 5 5 5 6 6 6 7 7 8 8
4 3 3 3 4 4 4 4 4 4 5 5 6 5 5 5 5 5 5 4 4 5 5 5 5 5 5 5 4 4 3 3 3 2 2 2 2 2 3 3 4 3 3 3 3 3 3 3 4 4 4 4 5 5 5 4 4 4 4 4 4 4 5 5 5 6 7 7 7
4 4 4 4 5 5 5 5 5 5 6 6 6 6 6 6 6 5 5 4 5 5 6 5 5 5 5 5 4 4 3 3 4 3 3 3 3 3 3 4 4 3 3 2 2 2 2 2 3 3 3 4 4 4 4 4 4 4 3 3 3 3 3 3 4 5 5 6 6
4 4 5 5 6 6 7 6 6 7 7 6 6 7 7 6 6 6 6 6 6 6 6 5 5 5 5 4 4 4 4 4 4 4 4 4 4 3 3 3 4 3 3 2 3 3 3 2 2 2 2 2 3 3 3 3 3 3 3 3 2 2 2 2 2 2 3 3 3
5 5 5 5 6 6 7 6 7 7 7 7 7 7 7 7 6 6 7 7 7 7 6 5 5 5 5 5 5 5 5 5 5 4 4 4 4 3 3 3 3 2 2 2 3 3 4 3 2 1 1 1 1 1 1 1 1 1 2 2 2 1 1 1 1 1 1 1 1
6 6 6 6 6 6 7 7 8 7 7 7 7 7 7 7 7 7 7 8 7 7 6 6 5 5 5 5 6 5 5 5 5 4 4 4 3 3 3 3 2 2 1 1 3 4 5 4 3 2 2 2 1 1 1 1 1 1 1 1 1 1 1 1 1 1 1 1 1
7 7 7 7 7 7 8 8 8 7 7 6 7 7 7 6 7 7 7 7 7 6 6 5 5 5 5 5 5 5 5 4 4 4 3 3 3 3 3 3 3 3 2 1 2 3 4 4 5 4 3 3 2 2 2 2 1 1 1 2 2 1 1 1 1 1 1 1 2
7 7 7 7 8 8 8 7 7 7 7 6 7 7 7 6 7 7 7 7 6 5 5 5 5 4 4 5 6 5 5 4 4 3 3 3 4 4 4 4 3 3 2 3 2 2 2 3 4 5 5 4 3 3 3 2 2 2 2 2 2 2 2 2 1 1 1 2 2
7 7 8 9 9 8 7 7 7 8 7 7 7 7 6 6 8 7 7 6 5 5 5 5 4 3 4 5 6 5 5 4 4 4 4 4 4 4 4 4 3 3 3 4 3 3 2 2 1 3 6 6 4 3 3 3 2 2 2 2 2 2 2 2 2 1 1 2 2
7 8 9 9 9 8 7 8 8 7 7 7 6 7 7 7 7 7 6 5 5 5 4 3 3 3 4 5 5 5 5 5 4 4 5 5 5 5 4 4 4 4 5 5 5 4 4 4 3 0 5 8 5 4 3 3 3 2 2 1 2 2 2 2 2 1 1 1 1
8 9 9 9 9 8 7 7 7 6 6 6 6 7 8 8 8 7 7 6 6 5 3 2 4 5 5 5 5 5 5 5 4 5 5 6 6 5 5 5 4 5 6 7 7 7 6 6 5 3 4 9 6 4 3 3 3 2 2 2 2 2 2 2 2 1 1 1 0
8 9 9 10 9 8 7 6 6 6 6 6 7 8 8 8 7 6 5 5 4 4 3 4 6 7 6 5 5 5 5 5 5 5 6 6 6 5 5 5 5 5 6 8 9 9 8 8 7 5 3 8 6 5 3 3 3 2 2 2 2 2 2 1 1 1 0 0 1
8 9 10 10 9 8 7 6 6 7 7 8 8 9 8 7 5 4 3 3 3 4 5 6 7 7 6 5 6 6 6 6 6 6 5 5 5 5 5 5 5 5 7 10 10 10 10 9 9 8 7 8 6 5 3 3 2 2 2 1 1 1 1 1 1 1 1 1 1
9 9 10 10 9 7 7 7 7 7 8 9 9 8 7 6 5 4 4 4 4 5 6 7 7 6 6 5 5 5 5 6 6 6 6 5 5 5 6 6 5 6 8 11 11 11 11 11 11 12 11 9 6 4 3 3 3 3 3 3 3 3 3 3 2 2 2 2 1
9 9 10 9 8 7 7 7 7 8 9 9 8 7 6 5 5 5 5 4 5 5 6 6 6 5 5 4 5 5 6 6 6 6 5 5 6 7 7 6 4 6 10 12 12 12 13 13 14 14 12 10 6 5 4 4 4 5 5 5 5 4 4 4 4 3 3 2 2
9 10 9 9 8 7 7 7 8 8 9 9 8 7 6 6 6 5 5 5 5 6 5 5 5 5 5 5 5 6 6 7 7 7 6 6 7 8 8 7 5 8 11 14 14 15 16 16 17 16 14 10 7 5 6 6 6 6 6 6 6 6 6 6 5 5 4 3 3
9 10 10 9 8 7 7 8 8 9 9 9 8 7 6 6 5 4 4 5 6 6 5 5 5 5 6 7 7 7 7 7 8 8 8 8 8 8 8 8 7 9 13 17 17 18 18 18 18 17 14 10 7 6 6 6 6 7 8 8 8 8 8 7 7 6 6 5 4
8 9 10 9 8 7 7 8 9 9 9 8 8 6 5 5 4 3 3 5 6 7 6 6 6 7 7 8 8 7 7 7 8 9 9 9 9 9 9 9 8 9 13 18 19 19 19 19 18 16 13 9 7 6 6 6 6 7 7 8 7 7 7 6 6 6 7 7 7
7 8 9 9 8 8 8 8 9 10 9 8 6 5 4 4 4 3 4 5 7 7 7 7 8 8 7 7 8 8 8 8 9 9 9 9 9 10 10 9 8 9 12 17 18 18 18 18 18 15 12 7 6 6 6 6 6 6 6 6 6 6 6 5 5 6 6 8 11
6 7 9 9 9 9 9 9 9 9 8 7 6 6 5 5 4 4 4 5 7 8 8 8 8 8 8 9 10 10 10 9 10 10 9 9 9 10 11 10 8 9 11 15 17 17 17 18 17 15 12 8 6 5 5 5 5 6 5 5 5 5 5 5 5 5 6 7 12
7 8 9 9 10 10 10 10 9 8 7 7 7 7 6 5 5 5 5 6 7 8 8 8 8 8 9 10 11 11 10 10 10 10 9 9 10 12 12 10 9 9 10 14 16 16 16 17 16 15 12 7 6 5 5 5 5 6 6 5 5 5 5 5 4 5 5 6 9
7 8 9 10 10 10 10 10 9 7 7 8 7 7 6 5 6 6 6 7 8 8 8 8 8 9 9 10 10 11 11 11 10 9 9 10 10 11 11 9 9 8 9 12 14 16 16 16 16 15 12 8 6 5 5 5 6 6 6 5 5 4 4 5 5 5 5 5 6
Wind_Direction
164 163 160 157 159 160 161 161 157 157 159 163 166 167 167 167 171 174 177 179 183 186 189 191 193 193 189 183 186 192 197 201 202 203 205 206 208 208 207 206 205 205 206 208 204 199 194 191 189 191 196 200 208 213 213 200 185 183 187 198 210 216 217 218 221 217 211 208 205
160 156 151 150 149 147 146 147 149 153 159 165 166 167 167 169 171 174 178 182 184 184 184 187 188 186 185 185 187 191 196 200 203 205 207 208 210 209 209 208 208 208 207 206 200 195 189 182 183 191 201 205 207 212 214 207 191 186 188 195 200 202 207 220 228 224 217 211 205
154 150 146 145 145 146 147 150 153 157 161 165 166 166 168 171 172 175 178 183 180 179 179 182 184 183 183 184 187 192 195 200 202 205 208 211 211 210 209 208 208 208 207 204 198 191 184 175 181 192 204 210 210 213 214 208 195 192 195 200 197 194 199 218 225 224 219 216 206
150 148 147 148 150 153 156 159 160 162 164 166 164 165 168 171 171 173 173 172 173 176 181 182 181 181 181 181 186 192 197 200 201 205 209 213 212 210 208 206 205 205 204 200 195 188 180 172 183 198 210 214 214 215 214 199 192 199 207 208 199 195 201 214 215 213 212 219 214
152 153 154 154 156 158 160 160 162 164 165 163 162 165 169 169 167 165 166 170 180 185 185 179 177 178 179 179 184 190 196 200 201 205 209 214 212 209 205 203 202 202 201 198 193 187 182 179 191 205 215 217 216 216 209 185 189 202 215 217 206 202 204 211 206 198 197 213 229
157 155 154 154 156 157 158 160 162 163 163 161 162 167 171 173 170 171 175 183 187 185 179 173 172 172 173 175 182 188 195 199 202 205 208 212 211 207 202 203 204 202 200 197 192 189 188 188 199 209 215 215 217 213 196 172 185 200 213 219 212 205 203 209 192 182 184 201 217
155 153 151 152 153 154 155 158 159 158 158 159 166 171 176 178 177 179 182 184 181 178 175 175 174 173 174 176 184 190 195 200 204 205 206 210 208 205 202 203 203 203 201 197 193 192 193 194 202 211 215 212 208 195 177 166 180 195 208 216 210 197 192 201 190 184 186 194 198
146 147 149 150 152 153 154 156 156 156 159 166 174 178 179 179 179 180 180 179 179 178 179 179 179 178 178 180 187 192 196 199 204 207 208 208 206 204 203 202 202 204 204 199 196 195 196 197 204 211 214 209 200 183 169 166 179 193 206 214 206 195 193 201 196 192 191 191 191
138 141 143 147 151 153 154 156 157 160 165 173 179 181 180 178 178 178 179 183 182 179 176 179 180 179 179 183 189 194 197 200 204 207 208 207 204 204 204 202 203 205 205 201 198 197 197 199 208 213 214 207 196 177 166 166 181 195 206 211 201 196 200 206 204 201 197 192 194
142 142 144 148 153 154 155 157 160 163 168 174 179 180 179 178 178 180 182 184 174 171 174 181 179 179 182 188 193 198 200 202 203 204 205 205 204 205 205 205 205 206 205 201 197 195 197 202 213 219 218 206 188 171 163 166 183 198 207 208 194 194 201 214 211 210 208 206 207
149 150 151 155 157 156 155 157 162 166 169 173 175 176 178 179 181 182 179 168 162 171 180 183 178 181 187 194 199 201 202 201 201 201 201 204 206 206 206 207 206 206 205 200 193 192 196 205 215 220 219 204 184 169 163 168 184 197 205 207 197 197 204 214 210 211 215 218 221
153 154 155 155 155 155 155 158 163 167 169 170 172 175 179 183 182 177 168 159 170 180 186 183 181 185 192 198 201 201 199 196 196 196 198 203 206 207 207 208 207 207 205 199 191 191 199 208 215 218 215 202 183 169 165 169 182 194 203 205 200 203 208 211 202 201 208 215 224
153 153 152 151 151 152 155 159 162 166 169 170 173 177 181 183 176 168 165 169 181 187 188 183 184 189 194 199 197 194 191 189 190 192 196 201 203 204 206 208 207 206 204 197 190 192 200 209 213 214 210 197 179 164 160 165 179 191 200 205 204 208 211 209 196 191 194 202 214
147 147 148 148 150 153 156 160 163 167 171 174 177 179 179 177 170 168 171 180 188 188 183 179 185 190 193 191 187 184 181 180 182 187 194 200 200 201 202 206 204 202 199 196 190 191 197 207 208 207 203 194 183 170 164 169 183 192 199 203 207 211 213 208 194 188 190 200 210
137 141 143 146 151 155 159 163 166 169 172 175 177 175 171 169 170 173 178 184 185 179 169 168 177 179 176 170 169 168 168 168 174 183 192 199 198 197 197 200 197 195 195 194 189 190 193 199 200 198 197 195 190 182 179 182 191 197 202 205 209 212 213 208 195 190 193 200 208
131 136 141 146 153 158 162 165 166 167 168 170 165 161 160 161 167 172 175 175 169 157 149 155 156 151 141 136 140 146 152 160 170 180 189 196 195 194 193 192 187 186 187 190 190 192 194 195 196 197 198 199 196 193 191 192 197 202 205 208 210 212 211 207 197 194 197 201 208
129 135 142 148 155 159 161 162 157 154 153 151 144 142 145 149 156 162 162 157 147 141 139 139 135 129 125 121 122 132 144 157 168 179 187 193 192 191 190 187 179 177 179 185 193 197 199 198 198 198 199 201 200 197 195 195 199 203 207 209 210 210 209 206 199 198 199 204 211
128 134 140 147 152 154 153 148 140 134 131 127 125 123 125 128 136 139 136 129 132 135 134 126 116 115 117 117 115 125 139 153 166 177 185 189 187 187 186 183 174 172 176 183 192 197 199 197 196 196 197 198 197 195 194 194 198 202 206 208 208 208 207 204 200 199 201 207 215
125 129 134 139 141 140 135 128 120 114 111 109 108 105 102 104 113 114 109 102 113 123 126 119 109 104 104 106 104 107 116 132 152 166 175 175 173 175 176 171 164 166 173 182 191 195 195 194 191 191 193 194 193 192 191 192 197 201 204 205 206 206 205 203 202 203 206 212 220
114 117 120 123 122 119 114 108 104 100 97 94 93 92 90 87 91 95 97 95 100 108 114 115 109 102 97 95 93 88 84 88 109 126 135 132 137 146 150 149 149 154 164 175 183 188 189 189 188 188 189 191 191 192 192 192 196 199 201 203 205 206 206 207 209 212 217 221 227
95 98 100 100 101 100 98 94 93 91 88 84 85 84 83 77 77 81 86 90 90 94 98 102 103 102 99 96 94 86 75 66 74 80 87 91 102 114 123 128 131 136 143 155 164 171 177 182 185 186 188 190 192 192 192 192 196 199 203 206 209 211 214 216 220 224 228 231 235
84 85 86 89 91 92 92 90 88 86 83 80 79 79 78 75 74 74 75 77 78 81 83 84 87 91 94 97 98 93 81 66 62 62 64 70 79 87 98 110 117 122 130 142 149 155 162 172 178 181 183 188 193 194 193 192 197 203 210 216 221 225 229 231 233 235 238 239 240
87 86 86 87 89 91 91 89 86 83 80 78 78 78 79 79 76 73 70 69 72 74 75 74 74 77 81 88 93 93 87 74 63 55 51 55 62 67 76 91 108 121 136 151 153 154 156 161 164 167 172 180 190 194 195 196 200 208 218 228 236 243 250 255 253 251 249 248 244
91 89 87 87 86 87 87 86 83 81 79 79 80 82 82 81 78 75 71 69 71 73 74 73 72 71 73 75 79 84 86 84 74 61 51 47 52 57 64 74 94 114 137 156 162 162 160 154 153 151 151 158 165 164 160 165 191 207 217 227 236 249 269 300 308 297 281 269 256
90 88 86 85 85 84 83 83 84 83 82 82 82 82 81 80 80 78 76 72 71 71 72 73 71 69 68 68 68 70 75 81 82 77 66 53 49 49 52 57 63 69 81 144 185 182 175 164 156 148 141 134 119 101 86 79 93 138 177 195 206 221 254 305 325 327 310 263 227
89 86 84 85 84 82 82 84 86 87 86 84 81 80 79 79 80 80 79 75 70 68 67 66 65 65 65 66 63 61 60 63 70 76 77 69 55 45 40 37 36 31 20 337 227 207 194 181 168 157 146 131 121 110 98 88 95 110 130 149 164 178 199 247 281 291 280 239 217
89 87 86 85 83 82 83 86 87 86 84 83 82 81 81 80 80 80 78 76 71 66 60 57 56 58 60 61 60 57 53 46 48 55 64 67 59 48 38 31 26 18 357 327 295 265 235 207 182 166 153 134 129 126 123 118 115 117 123 132 144 160 177 204 226 243 253 249 233
92 91 90 85 83 83 83 84 83 83 83 83 85 85 83 80 79 78 77 75 70 63 56 50 48 50 55 57 57 54 51 43 41 46 52 58 57 50 41 31 20 6 351 340 331 326 324 319 245 171 153 137 132 129 129 129 128 126 125 130 140 153 169 187 196 207 222 240 245
97 95 91 87 85 83 80 79 81 83 85 86 86 84 81 78 76 74 72 68 60 55 50 44 41 48 54 56 54 51 46 40 38 42 49 54 53 47 38 28 15 4 360 2 2 5 7 8 344 83 141 141 137 132 129 130 133 133 133 137 144 155 169 182 187 194 204 217 237
98 95 92 90 87 82 78 78 82 84 85 86 84 81 78 74 70 67 64 60 56 52 47 47 54 57 57 53 51 48 43 35 31 36 44 51 49 42 32 24 12 3 3 14 20 25 27 26 11 31 117 144 139 133 129 130 133 139 146 155 160 169 177 185 192 198 204 204 236
97 95 94 90 86 82 79 79 80 81 82 81 79 77 74 70 65 61 58 58 55 50 49 56 61 61 57 49 49 47 44 37 34 37 42 48 47 41 30 20 9 4 10 25 32 35 35 34 27 33 83 140 134 130 128 129 134 142 151 160 168 176 181 187 193 204 220 358 5
96 94 93 90 86 83 80 78 78 78 78 77 76 74 72 69 63 57 51 51 50 48 48 54 58 57 52 47 48 48 46 43 41 42 45 50 50 44 34 23 9 8 21 34 39 40 40 38 36 41 60 103 114 118 119 117 117 115 107 95 84 64 39 25 15 8 4 3 355
93 92 92 91 89 85 81 78 78 78 77 75 75 75 74 71 64 55 48 45 48 51 54 57 58 57 55 53 53 52 51 50 48 48 49 53 55 51 41 27 9 17 32 44 44 45 44 44 46 52 63 84 96 99 90 82 72 60 49 41 33 26 20 15 10 6 1 354 346
94 93 92 92 92 89 84 81 81 81 79 76 73 71 70 68 62 56 52 53 58 61 62 63 65 65 64 63 65 63 60 56 51 49 49 52 56 53 44 27 10 26 41 52 51 51 51 52 54 58 64 74 75 70 60 56 51 46 42 38 34 29 25 21 16 10 3 357 358
99 98 96 95 94 92 89 86 84 83 81 78 72 67 62 61 60 60 63 71 74 72 69 66 69 69 66 62 63 63 62 58 53 51 51 54 56 52 45 28 14 31 48 60 58 58 58 58 59 61 62 62 58 55 54 54 53 50 48 47 43 38 34 30 26 20 15 11 16
104 104 103 100 97 95 93 90 87 83 81 78 73 68 63 59 56 59 70 81 80 76 72 67 66 64 62 59 56 55 57 60 58 55 53 54 55 52 44 31 20 36 53 64 63 62 62 62 63 63 63 62 59 58 59 60 60 57 55 53 48 42 37 33 28 24 19 18 25
106 107 107 103 99 95 92 90 86 82 79 76 73 71 69 66 60 58 70 85 82 79 75 70 68 67 66 66 62 57 55 60 62 60 56 53 54 53 47 37 27 38 55 66 66 66 65 64 64 64 64 64 62 62 63 63 61 58 55 53 48 41 35 32 27 23 19 17 24
100 104 105 102 97 92 88 85 84 83 82 79 75 73 71 71 65 63 71 85 87 85 82 76 74 73 73 74 70 63 56 55 60 60 58 53 54 53 51 43 32 38 54 65 68 68 67 66 65 65 65 66 64 64 65 65 61 57 53 48 43 37 32 28 25 22 19 16 21
94 98 100 99 95 90 85 82 83 86 87 86 81 76 72 71 69 70 74 81 87 89 88 84 81 80 80 78 74 66 58 52 53 55 56 53 53 54 53 48 35 36 48 61 66 67 68 68 67 67 67 68 67 68 69 69 63 57 51 44 39 33 28 23 22 20 17 14 16
93 94 95 95 94 91 87 84 84 86 89 89 84 80 77 78 80 80 80 80 83 86 88 87 85 84 81 79 76 70 62 53 49 48 50 50 51 51 51 49 37 33 39 52 59 63 65 67 68 68 68 68 66 67 71 72 65 58 50 41 36 30 23 16 16 16 13 8 8
91 91 90 91 91 92 91 90 88 86 85 85 85 86 87 88 87 85 83 83 82 84 86 86 84 82 80 78 76 72 66 58 50 46 46 47 47 47 46 45 38 31 32 42 51 56 60 63 66 68 69 70 65 65 67 70 65 58 50 41 37 31 23 12 11 9 7 0 358